Location: Unspecified
(43.8044°N, 11.0278°E)
Time: 14:03:44
(UTC+02:00)

Cosmos 1674 - Visible Passes

Search period start: 28 March 2017 00:00
Search period end: 07 April 2017 00:00
Orbit: 498 x 524 km, 82.5° (Epoch: 26 March)

Date Brightness Start Highest point End Pass type
(mag) Time Alt. Az. Time Alt. Az. Time Alt. Az.
28 Mar 3.3 21:08:25 10° NNW 21:12:09 57° W 21:15:52 10° S visible
29 Mar 2.8 20:51:57 10° NNW 20:55:44 75° W 20:59:31 10° S visible
30 Mar 2.6 20:35:30 10° N 20:39:18 85° E 20:43:07 10° S visible
31 Mar 2.6 20:19:05 10° N 20:22:52 66° E 20:26:40 10° SSE visible
01 Apr 6.0 21:40:25 10° WNW 21:41:33 11° W 21:42:41 10° WSW visible
02 Apr 5.8 21:23:10 10° NW 21:25:12 14° W 21:27:13 10° WSW visible
03 Apr 5.7 21:06:16 10° NW 21:08:50 17° W 21:11:26 10° SW visible
04 Apr 5.5 20:49:31 10° NW 20:52:28 22° W 20:55:26 10° SW visible
05 Apr 5.1 20:32:50 10° NNW 20:36:06 27° W 20:39:22 10° SSW visible
06 Apr 4.7 20:16:14 10° NNW 20:19:42 34° W 20:23:12 10° SSW visible
